Home   Weather   Telfs   Past weeks

Flag for Austria Past Weather in Telfs, Tyrol, Austria — Yesterday and Last 2 Weeks

Now
25 °F

Clear.


Feels Like: 25 °F
Forecast: 8 / 30 °F
Wind: 1 mph from North

Location: Innsbruck-Flughafen

Current Time: Jan 23, 2017 at 6:22:33 pm

Latest Report: Jan 23, 2017 at 5:20 pm


Visibility: 10 mi

Pressure: 30.12 "Hg (27.80 "Hg at 630m altitude)

Humidity: 42%

Dew Point: 5 °F

Location of TelfsLocation

Past Weather in Telfs — Graph

°F

Telfs Temperature Yesterday

Maximum temperature yesterday: 36 °F (at 2:20 pm)
Minimum temperature yesterday: 7 °F (at 6:20 am)
Average temperature yesterday: 22 °F

High & Low Weather Summary for the Past Weeks

 TemperatureHumidityPressure
High37 °F (Jan 12, 1:20 pm)100% (Jan 8, 5:20 pm)30.51 "Hg (Jan 8, 5:20 pm)
Low5 °F (Jan 20, 6:50 am)38% (Jan 23, 1:50 pm)29.42 "Hg (Jan 13, 4:20 am)
Average23 °F84%30.14 "Hg
* Reported Jan 8 4:20 pm — Jan 23 4:50 pm, Telfs, Weather by CustomWeather, © 2017

Note: Actual official high and low records may vary slightly from our data, if they occured in-between our weather recording intervals... More about our weather records

Advertising

Telfs Weather History for the Previous 24 Hours

Scroll right to see more
 ConditionsComfort  
Time TempWeatherWind HumidityBarometerVisibility
4:50 pm
Mon, Jan 23
27 °FSunny.1 mph43%30.12 "Hg10 mi
4:20 pm30 °FSunny.2 mph43%30.09 "Hg10 mi
3:50 pm34 °FSunny.2 mph44%30.09 "Hg10 mi
3:20 pm36 °FSunny.2 mph44%30.09 "Hg10 mi
2:50 pm37 °FSunny.2 mph38%30.12 "Hg10 mi
2:20 pm37 °FSunny.2 mph38%30.12 "Hg10 mi
1:50 pm36 °FSunny.1 mph38%30.12 "Hg10 mi
1:20 pm36 °FSunny.1 mph41%30.12 "Hg10 mi
12:50 pm34 °FSunny.6 mph41%30.15 "Hg10 mi
12:20 pm34 °FSunny.1 mph44%30.15 "Hg10 mi
11:50 am32 °FSunny.2 mph47%30.18 "Hg10 mi
11:20 am28 °FPassing clouds.3 mph51%30.18 "HgN/A
10:50 am28 °FSunny.1 mph59%30.21 "Hg10 mi
10:20 am25 °FSunny.1 mph74%30.21 "Hg10 mi
9:50 am21 °FSunny.1 mph86%30.21 "Hg10 mi
9:20 am18 °FSunny.1 mph93%30.21 "Hg10 mi
8:50 am14 °FSunny.1 mph92%30.21 "Hg10 mi
8:20 am10 °FSunny.2 mph92%30.21 "Hg10 mi
7:50 am12 °FClear.1 mph92%30.21 "Hg10 mi
7:20 am12 °FClear.1 mph92%30.21 "Hg10 mi
6:50 am12 °FClear.2 mph92%30.21 "Hg10 mi
6:20 am10 °FClear.1 mph92%30.21 "Hg10 mi
5:50 am12 °FClear.1 mph92%30.21 "Hg10 mi
5:20 am16 °FCold.1 mph86%30.21 "HgN/A
4:50 am14 °FCold.2 mph92%30.21 "HgN/A
4:20 am16 °FCold.2 mph93%30.21 "HgN/A
3:50 am16 °FCold.2 mph93%30.21 "HgN/A
3:20 am16 °FCold.1 mph86%30.21 "HgN/A
2:50 am21 °FCold.1 mph80%30.21 "HgN/A
2:20 am18 °FCold.1 mph79%30.21 "HgN/A
1:50 am23 °FCold.2 mph74%30.21 "HgN/A
1:20 am23 °FCold.6 mph68%30.21 "HgN/A
12:50 am21 °FCold.6 mph74%30.21 "HgN/A
12:20 am23 °FCold.8 mph74%30.21 "HgN/A
11:50 pm
Sun, Jan 22
23 °FCold.9 mph74%30.24 "HgN/A
11:20 pm23 °FCold.10 mph74%30.21 "HgN/A
10:50 pm25 °FPassing clouds.10 mph69%30.21 "HgN/A
10:20 pm25 °FClear.12 mph74%30.21 "Hg10 mi
9:50 pm23 °FClear.8 mph74%30.21 "Hg10 mi
9:20 pm25 °FPassing clouds.10 mph69%30.21 "HgN/A
8:50 pm27 °FClear.15 mph69%30.21 "Hg10 mi
8:20 pm27 °FClear.15 mph69%30.21 "Hg10 mi
7:50 pm27 °FClear.10 mph69%30.21 "Hg10 mi
7:20 pm27 °FPassing clouds.7 mph69%30.21 "HgN/A
6:50 pm30 °FClear.13 mph59%30.21 "Hg10 mi
6:20 pm30 °FClear.10 mph59%30.18 "Hg10 mi
Weather by CustomWeather, © 2017

See weather overviewHow to use our weather pages